Moses Lake, WA
on Friday, January 25, 2013

Friday
Previous Day Next Day
Daily Summary
 ActualAverageRecord
Temperature
Mean Temperature °F 31°F  
Max Temperature 34°F 38°F 54°F (1981)
Min Temperature 28°F 25°F -1°F (2008)
Degree Days
Heating Degree Days 34 34  
Month to date heating degree days 959 888  
Since 1 July heating degree days 3167 3475  
Cooling Degree Days 0 0  
Month to date cooling degree days 0 0  
Year to date cooling degree days 0 0  
Moisture
Dew Point 26°F   
Average Humidity 84    
Maximum Humidity 92    
Minimum Humidity 75    
Precipitation
Precipitation 0.01 in 0.03 in 1.00 in (1987)
Month to date precipitation 0.28 1.01  
Year to date precipitation 0.28 1.01  
Wind
Wind Speed 2 mph   
Max Wind Speed 9 mph   
Max Gust Speed 12 mph   
Visibility 5 miles   
Events     

Key: T is trace of precipitation, MM is missing value
Source: NWS Daily Summary
Time(PST)TemperatureDew PointHumidity Pressure Visibility Wind DirectionWind SpeedGust SpeedPrecipitationEvents Conditions
12:52 AM 28.9°F 24.1°F 82% 30.18 in 7.0 miles South 4.6 mph - N/A   Overcast
1:03 AM 28.4°F 24.8°F 86% 30.14 in 7.0 miles SW 3.5 mph - N/A   Overcast
1:52 AM 28.0°F 24.1°F 85% 30.17 in 8.0 miles SW 3.5 mph - N/A   Overcast
2:52 AM 28.0°F 23.0°F 81% 30.18 in 8.0 miles SW 3.5 mph - N/A   Overcast
3:52 AM 28.0°F 23.0°F 81% 30.16 in 8.0 miles Calm Calm - N/A   Overcast
4:52 AM 28.0°F 23.0°F 81% 30.15 in 7.0 miles SSE 3.5 mph - N/A   Overcast
5:39 AM 28.4°F 24.8°F 86% 30.11 in 7.0 miles Calm Calm - N/A   Overcast
5:52 AM 28.0°F 24.1°F 85% 30.15 in 7.0 miles Calm Calm - N/A   Overcast
6:28 AM 28.4°F 24.8°F 86% 30.10 in 7.0 miles Calm Calm - N/A   Overcast
6:52 AM 28.0°F 24.1°F 85% 30.15 in 5.0 miles Calm Calm - N/A   Overcast
7:52 AM 28.0°F 24.1°F 85% 30.14 in 3.0 miles SSE 3.5 mph - N/A   Overcast
8:15 AM 28.4°F 24.8°F 86% 30.10 in 2.0 miles Calm Calm - N/A   Overcast
8:23 AM 28.4°F 24.8°F 86% 30.10 in 1.8 miles Calm Calm - N/A   Overcast
8:39 AM 28.4°F 26.6°F 93% 30.10 in 2.5 miles Calm Calm - N/A   Overcast
8:52 AM 28.9°F 26.1°F 89% 30.14 in 1.8 miles Calm Calm - N/A   Overcast
9:48 AM 30.2°F 26.6°F 86% 30.11 in 2.0 miles Calm Calm - N/A   Overcast
9:52 AM 30.0°F 27.0°F 88% 30.15 in 2.5 miles Calm Calm - N/A   Overcast
10:52 AM 30.9°F 26.1°F 82% 30.14 in 2.5 miles Calm Calm - N/A   Haze
11:52 AM 30.9°F 27.0°F 85% 30.12 in 2.5 miles Calm Calm - N/A   Overcast
11:59 AM 32.0°F 26.6°F 80% 30.07 in 4.0 miles Calm Calm - N/A   Haze
12:52 PM 33.1°F 27.0°F 78% 30.09 in 4.0 miles Calm Calm - N/A   Haze
1:50 PM 33.8°F 26.6°F 75% 30.03 in 5.0 miles Calm Calm - N/A   Haze
1:52 PM 33.1°F 27.0°F 78% 30.07 in 5.0 miles Calm Calm - N/A   Haze
2:02 PM 33.8°F 26.6°F 75% 30.02 in 2.5 miles Calm Calm - N/A   Haze
2:52 PM 33.1°F 27.0°F 78% 30.06 in 2.5 miles Calm Calm - N/A   Haze
2:59 PM 33.8°F 26.6°F 75% 30.01 in 5.0 miles Calm Calm - 0.00 in   Overcast
3:52 PM 32.0°F 28.0°F 85% 30.04 in 4.0 miles Calm Calm - 0.01 in   Overcast
4:52 PM 32.0°F 28.9°F 88% 30.03 in 3.0 miles NW 3.5 mph - N/A   Overcast
4:59 PM 32.0°F 28.4°F 87% 29.98 in 1.5 miles Calm Calm - N/A   Overcast
5:30 PM 32.0°F 28.4°F 87% 29.98 in 1.5 miles Calm Calm - N/A   Overcast
5:44 PM 32.0°F 28.4°F 87% 29.98 in 1.5 miles NW 3.5 mph - N/A   Overcast
5:52 PM 32.0°F 28.9°F 88% 30.03 in 1.5 miles WNW 3.5 mph - N/A   Overcast
5:59 PM 32.0°F 28.4°F 87% 29.99 in 3.0 miles WNW 4.6 mph - N/A   Overcast
6:06 PM 32.0°F 28.4°F 87% 29.99 in 3.0 miles WNW 3.5 mph - N/A   Overcast
6:45 PM 32.0°F 28.4°F 87% 29.98 in 3.0 miles NW 3.5 mph - N/A   Overcast
6:52 PM 32.0°F 28.9°F 88% 30.02 in 3.0 miles Calm Calm - N/A   Overcast
7:52 PM 32.0°F 28.9°F 88% 30.01 in 6.0 miles NW 3.5 mph - N/A   Overcast
8:52 PM 32.0°F 28.0°F 85% 30.00 in 7.0 miles NW 8.1 mph - N/A   Overcast
9:52 PM 32.0°F 28.0°F 85% 30.00 in 10.0 miles West 4.6 mph - N/A   Overcast
10:52 PM 30.9°F 27.0°F 85% 30.00 in 10.0 miles NW 6.9 mph - N/A   Overcast
11:52 PM 30.9°F 27.0°F 85% 29.99 in 10.0 miles WNW 8.1 mph - N/A   Overcast
Moon Phase
Jan. 25 Jan. 26 Feb. 03 Feb. 10 Feb. 17
Sunrise:07:30 AM (PST) Moon Rise:03:51 PM (PST)
Sunset:04:49 PM (PST) Moon Set:06:13 AM (PST)

Copyright © 2014 The Weather Underground, Inc.